Погода в Ноорде

Аруба     12°33′59″N   70°01′55″W
темп.,
°C
ветер,
м/с
пор.,
м/с
влажн.,
%
обл.,
%
осадки,
мм/ч
давл.,
гПа
погр.,
м
18 апреля, вс
вс1823:00+26в11158499 0.0 1013675
02:00+26в11158699 0.0 1012789
05:00+26в111485100 0.0 1012905
08:00+26в121586100 0.1 1013913
11:00+26вюв111485100 0.0 1014879
14:00+26в10138493 0.1 1012850
17:00+26в11158397 0.0 1010718
20:00+26в121785100 0.0 1012713
19 апреля, пн
пн1923:00+26в121785100 0.0 1014868
02:00+26в121685100 0.1 10121052
05:00+26в121586100 0.1 10121093
08:00+26в121585100 0.1 10141023
11:00+26в11158481 0.1 1016958
14:00+26в11158299 0.1 1013898
17:00+26в12158498 0.0 1011827
20:00+26в12178355 0.0 1013780
20 апреля, вт
вт2023:00+26в121684100 0.0 1014866
02:00+26в111485100 0.0 10131012
05:00+26в11148599 0.1 10131120
08:00+26в11148594 0.1 10151032
11:00+26в11158393 0.0 1016965
14:00+26в11148529 0.0 1014866
17:00+26в11148551 0.0 1012817
20:00+26в1114855 0.0 1013865
21 апреля, ср
ср2123:00+26в1114861 0.0 1014950
02:00+26в1113865 0.1 10131068
05:00+26в11138366 0.1 10131093
08:00+26в10138247 0.1 10141080
11:00+26в10128337 0.0 1015963
14:00+26в10128297 0.0 1013772
17:00+26в1012830 0.0 1011695
20:00+26в1013850 0.0 1012804
22 апреля, чт
чт2223:00+26в1013850 0.0 1013877
02:00+26в1012860 0.1 1012991
05:00+26в1112860 0.1 1012956
08:00+26в1012820 0.1 10141013
11:00+26в811830 0.0 1015864
14:00+26в912851 0.0 1012838
17:00+26в1012855 0.0 1010663
20:00+26всв1114865 0.0 1011688